Flag for U.S.A. Weather past 2 weeks in Yonkers, New York, U.S.A.

Now
29 °F

Overcast.


Feels Like: 18 °F
Forecast: 26 / 43 °F
Wind: 14 mph from Northwest

Location: Teterboro Airport

Current Time: Mar 28, 2015 at 11:47:32 PM

Latest Report: Mar 28, 2015 at 10:51 PM


Visibility: 10 mi

Pressure: 30.10 "Hg

Humidity: 56%

Dew point: 15 °F

Location of YonkersLocation

Historic Weather in Yonkers — Graph

°F

Yonkers temperature yesterday

Maximum temperature yesterday: 47 °F (at 4:51 PM)
Minimum temperature yesterday: 39 °F (at 7:51 AM)
Average temperature yesterday: 43 °F

Past Weeks' High & Low Weather Summary

 TemperatureHumidityPressure
High57 °F (Mar 26, 7:51 PM)97% (Mar 14, 2:51 PM)30.42 "Hg (Mar 14, 2:51 PM)
Low22 °F (Mar 23, 6:51 AM)20% (Mar 19, 4:51 PM)29.55 "Hg (Mar 17, 10:51 AM)
Average38 °F57%30.02 "Hg
* Reported Mar 13 9:51 PM — Mar 28 9:51 PM, Yonkers, Weather by CustomWeather, © 2015

Note: Actual official high and low records may vary slightly from our data, if they occured in-between our weather recording intervals... More about our weather records

Advertising

Yonkers weather history for previous 24 hours

 ConditionsComfort  
Time TempWeatherWind HumidityBarometerVisibility
9:51 PM
Sat, Mar 28
30 °FOvercast.13 mph51%30.08 "Hg10 mi
8:51 PM31 °FOvercast.15 mph61%30.04 "Hg10 mi
7:51 PM32 °FOvercast.16 mph59%30.01 "Hg10 mi
6:51 PM35 °FMostly cloudy.14 mph48%29.95 "Hg10 mi
5:51 PM38 °FOvercast.13 mph45%29.90 "Hg10 mi
4:51 PM39 °FMore clouds than sun.14 mph43%29.86 "Hg10 mi
3:51 PM39 °FOvercast.12 mph45%29.84 "Hg10 mi
2:51 PM39 °FMostly cloudy.14 mph45%29.83 "Hg10 mi
1:51 PM37 °FMore clouds than sun.9 mph57%29.83 "Hg10 mi
12:51 PM36 °FLight snow. More clouds than sun.13 mph54%29.84 "Hg7 mi
11:51 AM35 °FLight snow. Mostly cloudy.12 mph54%29.84 "Hg8 mi
10:51 AM35 °FLight snow. Overcast.14 mph52%29.83 "Hg9 mi
9:51 AM34 °FOvercast.12 mph52%29.82 "Hg10 mi
8:51 AM33 °FScattered clouds.12 mph54%29.81 "Hg10 mi
7:51 AM33 °FOvercast.8 mph56%29.80 "Hg10 mi
6:51 AM34 °FOvercast.10 mph54%29.78 "Hg10 mi
5:51 AM35 °FOvercast.10 mph54%29.76 "Hg10 mi
4:51 AM36 °FPassing clouds.9 mph57%29.76 "Hg10 mi
3:51 AM37 °FPartly cloudy.8 mph57%29.76 "Hg10 mi
2:51 AM37 °FOvercast.8 mph60%29.77 "Hg10 mi
1:51 AM38 °FOvercast.9 mph58%29.78 "Hg10 mi
12:51 AM40 °FOvercast.10 mph55%29.78 "Hg10 mi
11:51 PM
Fri, Mar 27
41 °FOvercast.10 mph53%29.80 "Hg10 mi
Weather by CustomWeather, © 2015

See weather overviewHow to use our weather pages